MMS 2

Last updated on July 6, 2021, 3:27 p.m. UTC

1 40483U 15011A   21186.36985265 -.00001386  00000-0  00000-0 0  9998
2 40483  33.6052 116.4975 8434332  34.0829 209.1119  0.28560167 12377
UTC
Height (km)
Latitude
Longitude
Inclination
Orbital Period
UTC large
Height (km)
Speed (km/s)
/
Latitude / Longitude
Inclination (degrees)
Orbital Period (minutes)
Azimuth
Elevation
Range (km)
Doppler Factor
iOS Compass Heading
iOS Angle